Weather History for Dayton, OH

Change the Weather History Date:

Tuesday, June 4, 2013

  Actual Average Record
Temperature  
Mean Temperature 62 °F 67 °F  
Max Temperature 75 °F 77 °F 97 °F (1895)
Min Temperature 48 °F 58 °F 44 °F (1990)
Degree Days  
Heating Degree Days 3 2  
Month to date heating degree days 9 8  
Since 1 June heating degree days 9 8  
Since 1 July heating degree days 5455 5628  
Cooling Degree Days 0 4  
Month to date cooling degree days 11 16  
Year to date cooling degree days 142 86  
Since 1 June cooling degree days 11 16  
Growing Degree Days 12 (Base 50)    
Moisture  
Dew Point 46 °F    
Average Humidity 64    
Maximum Humidity 93    
Minimum Humidity 35    
Precipitation  
Precipitation 0.00 in 0.15 in 2.13 in (2008)
Month to date precipitation T 0.59  
Year to date precipitation 14.30 17.63  
Snow  
Snow 0.00 in 0.00 in 0.00 in ()
Month to date snowfall 0.0 0.0  
Since 1 June snowfall 0.0 0.0  
Since 1 July snowfall 36.3 23.3  
Snow Depth 0.00 in    
Sea Level Pressure  
Sea Level Pressure 30.13 in    
Wind  
Wind Speed 6 mph (ENE)    
Max Wind Speed 16 mph    
Max Gust Speed 20 mph    
Visibility 10 miles    
Events      
T = Trace of Precipitation, MM = Missing Value Source: NWS Daily Summary

Daily Weather History Graph

Daily Weather History Graph

Search for Another Location

Airport:

Trip Planner

Search our weather history database for the weather conditions in past years. The results will help you decide how hot, cold, wet, or windy it might be!

Date:

Astronomy

Jun. 04, 2013 Rise Set
Actual Time 6:09 AM EDT 9:01 PM EDT
Civil Twilight 5:36 AM EDT 9:33 PM EDT
Nautical Twilight 4:56 AM EDT 10:14 PM EDT
Astronomical Twilight 4:09 AM EDT 11:01 PM EDT
Moon 3:38 AM EDT (6/4) 5:30 PM EDT (6/4)
Length of Visible Light 15h 56m
Length of Day
14h 52m
Waning Crescent, 14% of the Moon is Illuminated
Jun 4
Waning Crescent
Jun 8
New
Jun 16
First Quarter
Jun 23
Full
Jun 30
Last Quarter

Hourly Weather History & Observations

Time (EDT) Temp. Dew Point Humidity Pressure Visibility Wind Dir Wind Speed Gust Speed Precip Events Conditions
12:56 AM 54.0 °F 48.0 °F 80% 30.11 in 10.0 mi North 5.8 mph - N/A   Clear
1:56 AM 54.0 °F 48.9 °F 83% 30.10 in 10.0 mi Calm Calm - N/A   Clear
2:56 AM 52.0 °F 46.9 °F 83% 30.11 in 10.0 mi NE 3.5 mph - N/A   Clear
3:56 AM 50.0 °F 46.9 °F 89% 30.12 in 9.0 mi ENE 4.6 mph - N/A   Clear
4:56 AM 48.9 °F 46.0 °F 90% 30.13 in 9.0 mi ENE 3.5 mph - N/A   Clear
5:56 AM 48.9 °F 44.1 °F 83% 30.14 in 10.0 mi Calm Calm - N/A   Clear
6:56 AM 50.0 °F 46.0 °F 86% 30.16 in 10.0 mi SE 3.5 mph - N/A   Clear
7:56 AM 55.0 °F 46.9 °F 74% 30.17 in 10.0 mi East 4.6 mph - N/A   Clear
8:56 AM 59.0 °F 43.0 °F 55% 30.18 in 10.0 mi East 4.6 mph - N/A   Clear
9:56 AM 64.0 °F 44.1 °F 48% 30.16 in 10.0 mi East 6.9 mph - N/A   Clear
10:56 AM 66.9 °F 44.1 °F 44% 30.16 in 10.0 mi East 15.0 mph - N/A   Clear
11:56 AM 68.0 °F 45.0 °F 43% 30.17 in 10.0 mi ESE 8.1 mph - N/A   Partly Cloudy
12:56 PM 70.0 °F 44.1 °F 39% 30.17 in 10.0 mi East 10.4 mph - N/A   Partly Cloudy
1:56 PM 71.1 °F 44.1 °F 38% 30.14 in 10.0 mi East 9.2 mph - N/A   Partly Cloudy
2:56 PM 72.0 °F 44.1 °F 37% 30.13 in 10.0 mi Variable 6.9 mph - N/A   Scattered Clouds
3:56 PM 73.0 °F 44.1 °F 35% 30.12 in 10.0 mi NE 8.1 mph - N/A   Scattered Clouds
4:56 PM 73.9 °F 45.0 °F 35% 30.12 in 10.0 mi NE 4.6 mph - N/A   Scattered Clouds
5:56 PM 73.9 °F 46.0 °F 37% 30.11 in 10.0 mi East 6.9 mph - N/A   Scattered Clouds
6:56 PM 73.0 °F 45.0 °F 37% 30.10 in 10.0 mi East 6.9 mph - N/A   Mostly Cloudy
7:56 PM 71.1 °F 46.0 °F 41% 30.09 in 10.0 mi ENE 6.9 mph - N/A   Mostly Cloudy
8:56 PM 66.9 °F 46.9 °F 49% 30.09 in 10.0 mi ENE 5.8 mph - N/A   Mostly Cloudy
9:56 PM 62.1 °F 48.0 °F 60% 30.11 in 10.0 mi ENE 6.9 mph - N/A   Scattered Clouds
10:56 PM 63.0 °F 48.0 °F 58% 30.12 in 10.0 mi ENE 9.2 mph - N/A   Partly Cloudy
11:56 PM 61.0 °F 46.9 °F 60% 30.12 in 10.0 mi ENE 10.4 mph - N/A   Partly Cloudy